�������l�o���
Date,Time,MP-1(��Sv/h),MP-2(��Sv/h),MP-3(��Sv/h),MP-4(��Sv/h),MP-5(��Sv/h),MP-6(��Sv/h),MP-7(��Sv/h),MP-8(��Sv/h),����,����(m/s),���J
2017/06/03,00:00,0.975,1.544,1.038,1.862,1.259,0.530,0.968,0.896,���k��,4.0,��
2017/06/03,00:10,0.975,1.543,1.040,1.864,1.257,0.531,0.968,0.896,��,4.3,��
2017/06/03,00:20,0.976,1.540,1.042,1.867,1.258,0.529,0.970,0.897,���k��,5.2,��
2017/06/03,00:30,0.975,1.543,1.039,1.863,1.258,0.530,0.968,0.896,���k��,5.4,��
2017/06/03,00:40,0.976,1.546,1.040,1.867,1.259,0.531,0.969,0.897,���k��,6.9,��
2017/06/03,00:50,0.977,1.542,1.040,1.863,1.259,0.530,0.970,0.896,���k��,6.6,��
2017/06/03,01:00,0.976,1.543,1.039,1.866,1.257,0.531,0.969,0.897,�k��,6.2,��
2017/06/03,01:10,0.977,1.544,1.039,1.865,1.262,0.530,0.969,0.898,���k��,5.4,��
2017/06/03,01:20,0.975,1.546,1.040,1.865,1.260,0.529,0.969,0.897,���k��,5.0,��
2017/06/03,01:30,0.975,1.548,1.041,1.865,1.259,0.530,0.969,0.897,���k��,4.9,��
2017/06/03,01:40,0.976,1.545,1.040,1.869,1.261,0.530,0.967,0.896,���k��,5.6,��
2017/06/03,01:50,0.977,1.546,1.041,1.865,1.260,0.529,0.969,0.897,���k��,4.3,��
2017/06/03,02:00,0.975,1.547,1.041,1.865,1.261,0.530,0.968,0.899,�k��,5.3,��
2017/06/03,02:10,0.974,1.545,1.042,1.867,1.262,0.531,0.970,0.897,�k��,7.9,��
2017/06/03,02:20,0.974,1.546,1.041,1.865,1.260,0.530,0.967,0.898,�k��,7.4,��
2017/06/03,02:30,0.975,1.546,1.041,1.867,1.262,0.530,0.969,0.895,�k��,5.9,��
2017/06/03,02:40,0.976,1.545,1.039,1.867,1.261,0.530,0.970,0.898,�k��,4.9,��
2017/06/03,02:50,0.975,1.546,1.040,1.867,1.260,0.530,0.967,0.896,�k��,7.5,��
2017/06/03,03:00,0.976,1.549,1.041,1.868,1.261,0.531,0.968,0.897,�k��,4.9,��
2017/06/03,03:10,0.974,1.547,1.041,1.866,1.261,0.531,0.968,0.897,�k��,4.7,��
2017/06/03,03:20,0.975,1.546,1.041,1.867,1.262,0.531,0.968,0.897,�k��,3.2,��
2017/06/03,03:30,0.975,1.547,1.039,1.865,1.261,0.530,0.969,0.895,�k��,4.2,��
2017/06/03,03:40,0.977,1.546,1.038,1.871,1.261,0.531,0.968,0.894,���k��,4.4,��
2017/06/03,03:50,0.976,1.544,1.041,1.865,1.257,0.531,0.968,0.895,�k��,3.4,��
2017/06/03,04:00,0.975,1.545,1.040,1.865,1.258,0.530,0.968,0.896,�k��,4.2,��
2017/06/03,04:10,0.976,1.546,1.042,1.866,1.263,0.529,0.967,0.897,�k��,5.6,��
2017/06/03,04:20,0.976,1.546,1.040,1.868,1.259,0.527,0.968,0.896,�k��,5.0,��
2017/06/03,04:30,0.974,1.546,1.041,1.869,1.262,0.530,0.969,0.897,�k�k��,4.2,��
2017/06/03,04:40,0.974,1.548,1.044,1.866,1.259,0.529,0.967,0.896,�k��,4.0,��
2017/06/03,04:50,0.975,1.545,1.042,1.867,1.260,0.531,0.968,0.896,�k��,3.1,��
2017/06/03,05:00,0.975,1.545,1.041,1.866,1.261,0.529,0.970,0.897,�k��,2.0,��
2017/06/03,05:10,0.976,1.549,1.042,1.867,1.260,0.529,0.968,0.896,�k��,2.6,��
2017/06/03,05:20,0.975,1.547,1.040,1.868,1.261,0.530,0.969,0.896,�k��,2.8,��
2017/06/03,05:30,0.975,1.547,1.042,1.863,1.262,0.529,0.969,0.897,���k��,3.0,��
2017/06/03,05:40,0.975,1.550,1.041,1.866,1.263,0.529,0.969,0.898,���k��,2.9,��
2017/06/03,05:50,0.977,1.545,1.040,1.867,1.259,0.530,0.969,0.895,�k��,1.7,��
2017/06/03,06:00,0.976,1.547,1.041,1.868,1.263,0.529,0.967,0.896,�k��,2.0,��
2017/06/03,06:10,0.977,1.548,1.042,1.870,1.263,0.530,0.970,0.896,���k��,1.7,��
2017/06/03,06:20,0.979,1.548,1.044,1.870,1.263,0.529,0.968,0.896,���쐼,1.2,��
2017/06/03,06:30,0.976,1.546,1.044,1.870,1.263,0.530,0.969,0.897,��,2.6,��
2017/06/03,06:40,0.978,1.547,1.040,1.869,1.261,0.532,0.970,0.899,��,1.9,��
2017/06/03,06:50,0.977,1.545,1.043,1.871,1.259,0.530,0.971,0.897,���k��,3.0,��
2017/06/03,07:00,0.978,1.545,1.045,1.868,1.262,0.530,0.971,0.899,���k��,2.2,��
2017/06/03,07:10,0.977,1.546,1.043,1.868,1.261,0.529,0.971,0.898,���k��,1.4,��
2017/06/03,07:20,0.978,1.547,1.042,1.872,1.263,0.528,0.971,0.895,�k��,2.5,��
2017/06/03,07:30,0.979,1.550,1.044,1.870,1.263,0.529,0.970,0.897,�k��,2.6,��
2017/06/03,07:40,0.981,1.549,1.046,1.872,1.266,0.529,0.969,0.897,���쓌,1.2,��
2017/06/03,07:50,0.978,1.549,1.045,1.869,1.264,0.528,0.969,0.899,�쓌,3.0,��
2017/06/03,08:00,0.978,1.549,1.044,1.874,1.263,0.530,0.969,0.898,�쓌,1.7,��
2017/06/03,08:10,0.977,1.550,1.045,1.872,1.262,0.528,0.969,0.896,��,0.9,��
2017/06/03,08:20,0.979,1.551,1.044,1.873,1.265,0.529,0.969,0.897,��쐼,2.3,��
2017/06/03,08:30,0.978,1.548,1.044,1.876,1.262,0.529,0.970,0.896,��,4.9,��
2017/06/03,08:40,0.979,1.552,1.044,1.875,1.263,0.530,0.969,0.895,��,2.0,��
2017/06/03,08:50,0.979,1.554,1.042,1.875,1.263,0.529,0.969,0.895,��쓌,2.8,��
2017/06/03,09:00,0.980,1.554,1.043,1.875,1.265,0.528,0.971,0.896,�쓌,3.6,��
2017/06/03,09:10,0.978,1.552,1.045,1.876,1.264,0.531,0.970,0.895,�쓌,4.1,��
2017/06/03,09:20,0.978,1.557,1.044,1.875,1.266,0.529,0.970,0.895,�쓌,4.8,��
2017/06/03,09:30,0.980,1.557,1.044,1.876,1.265,0.530,0.971,0.897,�쓌,6.1,��
2017/06/03,09:40,0.981,1.561,1.043,1.877,1.266,0.531,0.970,0.895,�쓌,4.6,��
2017/06/03,09:50,0.983,1.559,1.044,1.877,1.268,0.532,0.971,0.898,�쓌,3.8,��
2017/06/03,10:00,0.984,1.559,1.045,1.877,1.268,0.531,0.971,0.899,�쓌,4.9,��
2017/06/03,10:10,0.983,1.561,1.045,1.877,1.270,0.532,0.973,0.896,�쓌,4.4,��
2017/06/03,10:20,0.985,1.560,1.046,1.876,1.271,0.533,0.970,0.898,�쓌,2.9,��
2017/06/03,10:30,0.986,1.563,1.046,1.880,1.271,0.534,0.972,0.897,��쓌,2.8,��
2017/06/03,10:40,0.984,1.564,1.046,1.878,1.271,0.534,0.974,0.898,���k��,2.5,��
2017/06/03,10:50,0.991,1.564,1.049,1.878,1.272,0.534,0.973,0.899,���k��,10.2,��
2017/06/03,11:00,0.989,1.562,1.050,1.880,1.274,0.535,0.972,0.899,��,9.5,��
2017/06/03,11:10,0.993,1.568,1.051,1.879,1.276,0.535,0.973,0.900,���k��,9.1,��
2017/06/03,11:20,0.993,1.567,1.048,1.881,1.277,0.533,0.972,0.900,��,7.7,��
2017/06/03,11:30,0.993,1.570,1.051,1.879,1.276,0.535,0.974,0.900,��,8.4,��
2017/06/03,11:40,0.995,1.575,1.052,1.878,1.279,0.534,0.974,0.901,��,7.9,��
2017/06/03,11:50,0.996,1.572,1.055,1.881,1.280,0.535,0.973,0.898,��,7.5,��
2017/06/03,12:00,0.996,1.572,1.053,1.881,1.279,0.536,0.976,0.901,��,9.2,��
2017/06/03,12:10,0.997,1.573,1.053,1.880,1.277,0.535,0.975,0.898,��,8.7,��
2017/06/03,12:20,0.997,1.574,1.054,1.880,1.281,0.534,0.976,0.899,��,10.2,��
2017/06/03,12:30,0.995,1.572,1.056,1.881,1.281,0.536,0.974,0.899,��,9.9,��
2017/06/03,12:40,0.994,1.571,1.055,1.885,1.278,0.535,0.973,0.899,��,10.6,��
2017/06/03,12:50,0.998,1.571,1.055,1.884,1.282,0.535,0.975,0.899,���k��,7.6,��
2017/06/03,13:00,0.995,1.572,1.055,1.883,1.281,0.534,0.975,0.900,���k��,6.2,��
2017/06/03,13:10,0.995,1.574,1.054,1.886,1.281,0.535,0.974,0.900,�k��,4.4,��
2017/06/03,13:20,0.994,1.575,1.058,1.887,1.279,0.535,0.976,0.899,�k��,9.6,��
2017/06/03,13:30,0.996,1.576,1.056,1.886,1.285,0.537,0.975,0.901,���k��,5.6,��
2017/06/03,13:40,0.998,1.576,1.055,1.885,1.283,0.534,0.976,0.900,��,9.4,��
2017/06/03,13:50,0.996,1.575,1.056,1.887,1.283,0.535,0.975,0.898,��,8.0,��
2017/06/03,14:00,0.996,1.574,1.057,1.886,1.282,0.535,0.975,0.898,���k��,6.2,��
2017/06/03,14:10,0.999,1.577,1.057,1.887,1.284,0.537,0.975,0.899,���k��,5.3,��
2017/06/03,14:20,0.998,1.577,1.056,1.888,1.285,0.535,0.974,0.899,��,6.3,��
2017/06/03,14:30,0.996,1.575,1.057,1.887,1.282,0.537,0.975,0.900,��,5.8,��
2017/06/03,14:40,0.997,1.575,1.056,1.891,1.282,0.535,0.975,0.900,���k��,6.2,��
2017/06/03,14:50,0.999,1.576,1.057,1.889,1.284,0.535,0.973,0.900,���k��,8.8,��
2017/06/03,15:00,0.995,1.576,1.056,1.888,1.281,0.535,0.975,0.898,���k��,9.1,��
2017/06/03,15:10,0.999,1.581,1.054,1.891,1.284,0.534,0.976,0.899,���k��,8.2,��
2017/06/03,15:20,0.997,1.582,1.059,1.892,1.284,0.537,0.975,0.900,��,7.3,��
2017/06/03,15:30,0.999,1.582,1.059,1.891,1.286,0.535,0.976,0.900,���k��,8.0,��
2017/06/03,15:40,0.999,1.582,1.058,1.892,1.284,0.535,0.976,0.901,���k��,6.9,��
2017/06/03,15:50,0.997,1.582,1.058,1.896,1.282,0.536,0.976,0.902,�k��,7.3,��
2017/06/03,16:00,0.999,1.581,1.059,1.895,1.286,0.536,0.975,0.900,���k��,7.8,��
2017/06/03,16:10,0.997,1.582,1.058,1.896,1.286,0.537,0.975,0.901,��,5.3,��
2017/06/03,16:20,0.998,1.583,1.057,1.892,1.285,0.535,0.976,0.901,���k��,5.3,��
2017/06/03,16:30,0.997,1.581,1.058,1.889,1.286,0.536,0.978,0.899,���k��,7.0,��
2017/06/03,16:40,0.997,1.580,1.060,1.890,1.287,0.536,0.976,0.903,���k��,6.2,��
2017/06/03,16:50,0.996,1.581,1.060,1.893,1.285,0.535,0.975,0.900,�k��,6.4,��
2017/06/03,17:00,0.998,1.580,1.060,1.892,1.286,0.536,0.978,0.901,���k��,7.3,��
2017/06/03,17:10,0.999,1.584,1.059,1.891,1.285,0.534,0.978,0.900,���k��,8.5,��
2017/06/03,17:20,0.999,1.582,1.058,1.889,1.287,0.534,0.976,0.900,���k��,8.0,��
2017/06/03,17:30,0.998,1.584,1.059,1.891,1.285,0.535,0.974,0.901,���k��,7.6,��
2017/06/03,17:40,0.996,1.585,1.059,1.892,1.285,0.536,0.975,0.898,���k��,10.3,��
2017/06/03,17:50,0.997,1.583,1.059,1.889,1.285,0.534,0.974,0.901,���k��,9.6,��
2017/06/03,18:00,0.997,1.583,1.060,1.888,1.283,0.534,0.977,0.899,���k��,12.1,��
2017/06/03,18:10,0.998,1.582,1.059,1.891,1.286,0.534,0.976,0.899,���k��,8.9,��
2017/06/03,18:20,0.998,1.586,1.061,1.894,1.284,0.534,0.975,0.900,��,10.0,��
2017/06/03,18:30,0.999,1.584,1.059,1.891,1.289,0.533,0.975,0.900,���k��,8.8,��
2017/06/03,18:40,1.000,1.586,1.058,1.892,1.287,0.535,0.974,0.904,��,6.5,��
2017/06/03,18:50,1.000,1.583,1.059,1.892,1.287,0.536,0.974,0.901,���k��,8.0,��
2017/06/03,19:00,0.999,1.583,1.058,1.893,1.289,0.535,0.974,0.902,���k��,7.0,��
2017/06/03,19:10,1.002,1.585,1.058,1.894,1.289,0.538,0.976,0.902,���k��,6.6,��
2017/06/03,19:20,1.000,1.583,1.060,1.898,1.289,0.536,0.974,0.902,��,7.5,��
2017/06/03,19:30,0.999,1.586,1.062,1.896,1.288,0.535,0.975,0.903,���k��,8.7,��
2017/06/03,19:40,1.003,1.584,1.062,1.896,1.289,0.536,0.974,0.903,���k��,8.7,��
2017/06/03,19:50,0.998,1.584,1.061,1.895,1.291,0.534,0.974,0.903,���k��,7.0,��
2017/06/03,20:00,0.998,1.583,1.061,1.900,1.290,0.535,0.975,0.902,���k��,9.8,��
2017/06/03,20:10,0.999,1.584,1.062,1.899,1.290,0.536,0.974,0.903,���k��,9.7,��
2017/06/03,20:20,1.000,1.584,1.059,1.899,1.292,0.535,0.975,0.901,���k��,7.8,��
2017/06/03,20:30,1.001,1.585,1.061,1.899,1.292,0.535,0.975,0.902,�k��,9.5,��
2017/06/03,20:40,1.000,1.584,1.062,1.899,1.288,0.535,0.976,0.902,�k��,10.9,��
2017/06/03,20:50,1.001,1.583,1.063,1.899,1.289,0.536,0.974,0.901,���k��,9.3,��
2017/06/03,21:00,0.999,1.584,1.058,1.898,1.292,0.536,0.974,0.903,���k��,7.8,��
2017/06/03,21:10,0.998,1.583,1.061,1.897,1.289,0.535,0.974,0.902,���k��,10.4,��
2017/06/03,21:20,1.000,1.583,1.062,1.896,1.289,0.535,0.974,0.903,���k��,7.7,��
2017/06/03,21:30,0.999,1.582,1.063,1.896,1.290,0.535,0.973,0.903,�k��,4.7,��
2017/06/03,21:40,0.997,1.583,1.061,1.899,1.287,0.536,0.974,0.903,���k��,4.6,��
2017/06/03,21:50,0.999,1.583,1.062,1.895,1.289,0.536,0.974,0.901,���k��,5.6,��
2017/06/03,22:00,1.000,1.583,1.062,1.900,1.287,0.537,0.974,0.902,���k��,5.2,��
2017/06/03,22:10,0.999,1.585,1.061,1.899,1.289,0.535,0.974,0.902,���k��,3.7,��
2017/06/03,22:20,0.996,1.585,1.061,1.899,1.291,0.536,0.975,0.902,���k��,6.1,��
2017/06/03,22:30,0.998,1.583,1.062,1.901,1.290,0.535,0.976,0.903,���k��,6.7,��
2017/06/03,22:40,0.996,1.583,1.062,1.898,1.288,0.535,0.975,0.902,���k��,4.8,��
2017/06/03,22:50,0.998,1.584,1.060,1.899,1.289,0.536,0.977,0.900,���쐼,4.2,��
2017/06/03,23:00,0.996,1.583,1.058,1.898,1.292,0.535,0.976,0.901,��,5.2,��
2017/06/03,23:10,0.998,1.582,1.061,1.901,1.290,0.536,0.978,0.904,���k��,4.3,��
2017/06/03,23:20,0.997,1.582,1.062,1.898,1.293,0.536,0.975,0.900,���k��,4.7,��
2017/06/03,23:30,0.997,1.582,1.060,1.900,1.291,0.535,0.975,0.902,���k��,6.8,��
2017/06/03,23:40,0.996,1.583,1.061,1.900,1.293,0.536,0.976,0.902,���k��,6.0,��
2017/06/03,23:50,0.997,1.584,1.063,1.900,1.290,0.534,0.977,0.900,���k��,5.6,��
